Year,Month,Day,Hour,Minute,Value (Times are PST for temperature in C)
2008,09,14,00,00,13.20
2008,09,14,00,01,13.30
2008,09,14,00,02,13.30
2008,09,14,00,03,13.30
2008,09,14,00,04,13.30
2008,09,14,00,05,13.30
2008,09,14,00,06,13.40
2008,09,14,00,07,13.40
2008,09,14,00,08,13.50
2008,09,14,00,09,13.60
2008,09,14,00,10,13.60
2008,09,14,00,11,13.60
2008,09,14,00,12,13.60
2008,09,14,00,13,13.60
2008,09,14,00,14,13.60
2008,09,14,00,15,13.60
2008,09,14,00,16,13.60
2008,09,14,00,17,13.60
2008,09,14,00,18,13.60
2008,09,14,00,19,13.60
2008,09,14,00,20,13.60
2008,09,14,00,21,13.60
2008,09,14,00,22,13.60
2008,09,14,00,23,13.60
2008,09,14,00,24,13.50
2008,09,14,00,25,13.50
2008,09,14,00,26,13.50
2008,09,14,00,27,13.40
2008,09,14,00,28,13.40
2008,09,14,00,29,13.40
2008,09,14,00,30,13.30
2008,09,14,00,31,13.30
2008,09,14,00,32,13.20
2008,09,14,00,33,13.10
2008,09,14,00,34,13.10
2008,09,14,00,35,13.00
2008,09,14,00,36,13.00
2008,09,14,00,37,12.90
2008,09,14,00,38,12.80
2008,09,14,00,39,12.80
2008,09,14,00,40,12.80
2008,09,14,00,41,12.70
2008,09,14,00,42,12.70
2008,09,14,00,43,12.70
2008,09,14,00,44,12.60
2008,09,14,00,45,12.60
2008,09,14,00,46,12.60
2008,09,14,00,47,12.60
2008,09,14,00,48,12.60
2008,09,14,00,49,12.50
2008,09,14,00,50,12.50
2008,09,14,00,51,12.50
2008,09,14,00,52,12.50
2008,09,14,00,53,12.50
2008,09,14,00,54,12.40
2008,09,14,00,55,12.40
2008,09,14,00,56,12.40
2008,09,14,00,57,12.40
2008,09,14,00,58,12.40
2008,09,14,00,59,12.30
2008,09,14,01,00,12.30
2008,09,14,01,01,12.30
2008,09,14,01,02,12.30
2008,09,14,01,03,12.30
2008,09,14,01,04,12.20
2008,09,14,01,05,12.20
2008,09,14,01,06,12.20
2008,09,14,01,07,12.20
2008,09,14,01,08,12.10
2008,09,14,01,09,12.10
2008,09,14,01,10,12.10
2008,09,14,01,11,12.10
2008,09,14,01,12,12.10
2008,09,14,01,13,12.00
2008,09,14,01,14,12.00
2008,09,14,01,15,12.00
2008,09,14,01,16,12.00
2008,09,14,01,17,11.90
2008,09,14,01,18,11.90
2008,09,14,01,19,11.90
2008,09,14,01,20,11.90
2008,09,14,01,21,11.90
2008,09,14,01,22,11.90
2008,09,14,01,23,11.80
2008,09,14,01,24,11.80
2008,09,14,01,25,11.80
2008,09,14,01,26,11.80
2008,09,14,01,27,11.80
2008,09,14,01,28,11.80
2008,09,14,01,29,11.80
2008,09,14,01,30,11.80
2008,09,14,01,31,11.70
2008,09,14,01,32,11.70
2008,09,14,01,33,11.70
2008,09,14,01,34,11.70
2008,09,14,01,35,11.70
2008,09,14,01,36,11.70
2008,09,14,01,37,11.70
2008,09,14,01,38,11.70
2008,09,14,01,39,11.70
2008,09,14,01,40,11.70
2008,09,14,01,41,11.70
2008,09,14,01,42,11.70
2008,09,14,01,43,11.60
2008,09,14,01,44,11.60
2008,09,14,01,45,11.60
2008,09,14,01,46,11.60
2008,09,14,01,47,11.60
2008,09,14,01,48,11.60
2008,09,14,01,49,11.60
2008,09,14,01,50,11.50
2008,09,14,01,51,11.50
2008,09,14,01,52,11.50
2008,09,14,01,53,11.40
2008,09,14,01,54,11.40
2008,09,14,01,55,11.40
2008,09,14,01,56,11.40
2008,09,14,01,57,11.40
2008,09,14,01,58,11.30
2008,09,14,01,59,11.30
2008,09,14,02,00,11.30
2008,09,14,02,01,11.30
2008,09,14,02,02,11.30
2008,09,14,02,03,11.30
2008,09,14,02,04,11.30
2008,09,14,02,05,11.20
2008,09,14,02,06,11.20
2008,09,14,02,07,11.20
2008,09,14,02,08,11.20
2008,09,14,02,09,11.20
2008,09,14,02,10,11.20
2008,09,14,02,11,11.20
2008,09,14,02,12,11.20
2008,09,14,02,13,11.10
2008,09,14,02,14,11.10
2008,09,14,02,15,11.10
2008,09,14,02,16,11.10
2008,09,14,02,17,11.10
2008,09,14,02,18,11.10
2008,09,14,02,19,11.10
2008,09,14,02,20,11.10
2008,09,14,02,21,11.10
2008,09,14,02,22,11.00
2008,09,14,02,23,11.00
2008,09,14,02,24,11.00
2008,09,14,02,25,11.00
2008,09,14,02,26,11.00
2008,09,14,02,27,10.90
2008,09,14,02,28,10.90
2008,09,14,02,29,10.90
2008,09,14,02,30,10.90
2008,09,14,02,31,10.90
2008,09,14,02,32,10.90
2008,09,14,02,33,10.90
2008,09,14,02,34,10.90
2008,09,14,02,35,10.90
2008,09,14,02,36,10.80
2008,09,14,02,37,10.80
2008,09,14,02,38,10.80
2008,09,14,02,39,10.80
2008,09,14,02,40,10.80
2008,09,14,02,41,10.80
2008,09,14,02,42,10.80
2008,09,14,02,43,10.80
2008,09,14,02,44,10.80
2008,09,14,02,45,10.80
2008,09,14,02,46,10.80
2008,09,14,02,47,10.80
2008,09,14,02,48,10.80
2008,09,14,02,49,10.80
2008,09,14,02,50,10.80
2008,09,14,02,51,10.70
2008,09,14,02,52,10.70
2008,09,14,02,53,10.70
2008,09,14,02,54,10.70
2008,09,14,02,55,10.70
2008,09,14,02,56,10.70
2008,09,14,02,57,10.70
2008,09,14,02,58,10.70
2008,09,14,02,59,10.60
2008,09,14,03,00,10.60
2008,09,14,03,01,10.60
2008,09,14,03,02,10.60
2008,09,14,03,03,10.60
2008,09,14,03,04,10.60
2008,09,14,03,05,10.60
2008,09,14,03,06,10.60
2008,09,14,03,07,10.60
2008,09,14,03,08,10.60
2008,09,14,03,09,10.60
2008,09,14,03,10,10.60
2008,09,14,03,11,10.50
2008,09,14,03,12,10.50
2008,09,14,03,13,10.50
2008,09,14,03,14,10.50
2008,09,14,03,15,10.50
2008,09,14,03,16,10.50
2008,09,14,03,17,10.50
2008,09,14,03,18,10.50
2008,09,14,03,19,10.40
2008,09,14,03,20,10.40
2008,09,14,03,21,10.40
2008,09,14,03,22,10.40
2008,09,14,03,23,10.40
2008,09,14,03,24,10.40
2008,09,14,03,25,10.40
2008,09,14,03,26,10.40
2008,09,14,03,27,10.40
2008,09,14,03,28,10.40
2008,09,14,03,29,10.40
2008,09,14,03,30,10.40
2008,09,14,03,31,10.40
2008,09,14,03,32,10.40
2008,09,14,03,33,10.40
2008,09,14,03,34,10.40
2008,09,14,03,35,10.40
2008,09,14,03,36,10.40
2008,09,14,03,37,10.40
2008,09,14,03,38,10.40
2008,09,14,03,39,10.40
2008,09,14,03,40,10.40
2008,09,14,03,41,10.40
2008,09,14,03,42,10.40
2008,09,14,03,43,10.40
2008,09,14,03,44,10.40
2008,09,14,03,45,10.40
2008,09,14,03,46,10.40
2008,09,14,03,47,10.40
2008,09,14,03,48,10.40
2008,09,14,03,49,10.40
2008,09,14,03,50,10.30
2008,09,14,03,51,10.30
2008,09,14,03,52,10.30
2008,09,14,03,53,10.30
2008,09,14,03,54,10.30
2008,09,14,03,55,10.30
2008,09,14,03,56,10.30
2008,09,14,03,57,10.30
2008,09,14,03,58,10.30
2008,09,14,03,59,10.30
2008,09,14,04,00,10.30
2008,09,14,04,01,10.30
2008,09,14,04,02,10.30
2008,09,14,04,03,10.30
2008,09,14,04,04,10.30
2008,09,14,04,05,10.30
2008,09,14,04,06,10.30
2008,09,14,04,07,10.30
2008,09,14,04,08,10.20
2008,09,14,04,09,10.20
2008,09,14,04,10,10.20
2008,09,14,04,11,10.20
2008,09,14,04,12,10.20
2008,09,14,04,13,10.20
2008,09,14,04,14,10.20
2008,09,14,04,15,10.20
2008,09,14,04,16,10.20
2008,09,14,04,17,10.10
2008,09,14,04,18,10.10
2008,09,14,04,19,10.10
2008,09,14,04,20,10.10
2008,09,14,04,21,10.10
2008,09,14,04,22,10.10
2008,09,14,04,23,10.10
2008,09,14,04,24,10.00
2008,09,14,04,25,10.00
2008,09,14,04,26,10.00
2008,09,14,04,27,10.00
2008,09,14,04,28,10.00
2008,09,14,04,29,9.90
2008,09,14,04,30,9.90
2008,09,14,04,31,9.90
2008,09,14,04,32,9.90
2008,09,14,04,33,9.90
2008,09,14,04,34,9.90
2008,09,14,04,35,9.90
2008,09,14,04,36,9.90
2008,09,14,04,37,9.90
2008,09,14,04,38,9.90
2008,09,14,04,39,9.80
2008,09,14,04,40,9.80
2008,09,14,04,41,9.80
2008,09,14,04,42,9.80
2008,09,14,04,43,9.80
2008,09,14,04,44,9.80
2008,09,14,04,45,9.80
2008,09,14,04,46,9.70
2008,09,14,04,47,9.70
2008,09,14,04,48,9.70
2008,09,14,04,49,9.70
2008,09,14,04,50,9.70
2008,09,14,04,51,9.70
2008,09,14,04,52,9.70
2008,09,14,04,53,9.70
2008,09,14,04,54,9.70
2008,09,14,04,55,9.70
2008,09,14,04,56,9.70
2008,09,14,04,57,9.70
2008,09,14,04,58,9.70
2008,09,14,04,59,9.70
2008,09,14,05,00,9.70
2008,09,14,05,01,9.70
2008,09,14,05,02,9.70
2008,09,14,05,03,9.70
2008,09,14,05,04,9.70
2008,09,14,05,05,9.70
2008,09,14,05,06,9.70
2008,09,14,05,07,9.70
2008,09,14,05,08,9.70
2008,09,14,05,09,9.70
2008,09,14,05,10,9.70
2008,09,14,05,11,9.70
2008,09,14,05,12,9.70
2008,09,14,05,13,9.70
2008,09,14,05,14,9.70
2008,09,14,05,15,9.70
2008,09,14,05,16,9.70
2008,09,14,05,17,9.70
2008,09,14,05,18,9.70
2008,09,14,05,19,9.70
2008,09,14,05,20,9.70
2008,09,14,05,21,9.70
2008,09,14,05,22,9.70
2008,09,14,05,23,9.70
2008,09,14,05,24,9.70
2008,09,14,05,25,9.70
2008,09,14,05,26,9.70
2008,09,14,05,27,9.70
2008,09,14,05,28,9.70
2008,09,14,05,29,9.60
2008,09,14,05,30,9.60
2008,09,14,05,31,9.60
2008,09,14,05,32,9.60
2008,09,14,05,33,9.60
2008,09,14,05,34,9.60
2008,09,14,05,35,9.60
2008,09,14,05,36,9.60
2008,09,14,05,37,9.60
2008,09,14,05,38,9.60
2008,09,14,05,39,9.60
2008,09,14,05,40,9.60
2008,09,14,05,41,9.60
2008,09,14,05,42,9.60
2008,09,14,05,43,9.60
2008,09,14,05,44,9.60
2008,09,14,05,45,9.60
2008,09,14,05,46,9.60
2008,09,14,05,47,9.60
2008,09,14,05,48,9.60
2008,09,14,05,49,9.60
2008,09,14,05,50,9.60
2008,09,14,05,51,9.60
2008,09,14,05,52,9.60
2008,09,14,05,53,9.60
2008,09,14,05,54,9.60
2008,09,14,05,55,9.60
2008,09,14,05,56,9.60
2008,09,14,05,57,9.60
2008,09,14,05,58,9.60
2008,09,14,05,59,9.60
2008,09,14,06,00,9.60
2008,09,14,06,01,9.60
2008,09,14,06,02,9.60
2008,09,14,06,03,9.60
2008,09,14,06,04,9.60
2008,09,14,06,05,9.60
2008,09,14,06,06,9.60
2008,09,14,06,07,9.60
2008,09,14,06,08,9.60
2008,09,14,06,09,9.60
2008,09,14,06,10,9.60
2008,09,14,06,11,9.60
2008,09,14,06,12,9.60
2008,09,14,06,13,9.60
2008,09,14,06,14,9.60
2008,09,14,06,15,9.60
2008,09,14,06,16,9.60
2008,09,14,06,17,9.50
2008,09,14,06,18,9.50
2008,09,14,06,19,9.50
2008,09,14,06,20,9.40
2008,09,14,06,21,9.40
2008,09,14,06,22,9.40
2008,09,14,06,23,9.40
2008,09,14,06,24,9.40
2008,09,14,06,25,9.40
2008,09,14,06,26,9.40
2008,09,14,06,27,9.40
2008,09,14,06,28,9.40
2008,09,14,06,29,9.30
2008,09,14,06,30,9.30
2008,09,14,06,31,9.30
2008,09,14,06,32,9.30
2008,09,14,06,33,9.30
2008,09,14,06,34,9.30
2008,09,14,06,35,9.30
2008,09,14,06,36,9.30
2008,09,14,06,37,9.30
2008,09,14,06,38,9.20
2008,09,14,06,39,9.20
2008,09,14,06,40,9.20
2008,09,14,06,41,9.20
2008,09,14,06,42,9.20
2008,09,14,06,43,9.20
2008,09,14,06,44,9.20
2008,09,14,06,45,9.20
2008,09,14,06,46,9.20
2008,09,14,06,47,9.10
2008,09,14,06,48,9.10
2008,09,14,06,49,9.10
2008,09,14,06,50,9.10
2008,09,14,06,51,9.10
2008,09,14,06,52,9.10
2008,09,14,06,53,9.10
2008,09,14,06,54,9.10
2008,09,14,06,55,9.10
2008,09,14,06,56,9.10
2008,09,14,06,57,9.00
2008,09,14,06,58,9.00
2008,09,14,06,59,9.00
2008,09,14,07,00,9.00
2008,09,14,07,01,9.00
2008,09,14,07,02,9.00
2008,09,14,07,03,9.00
2008,09,14,07,04,9.00
2008,09,14,07,05,9.00
2008,09,14,07,06,8.90
2008,09,14,07,07,8.90
2008,09,14,07,08,8.90
2008,09,14,07,09,8.90
2008,09,14,07,10,8.90
2008,09,14,07,11,8.90
2008,09,14,07,12,8.90
2008,09,14,07,13,8.90
2008,09,14,07,14,8.90
2008,09,14,07,15,8.90
2008,09,14,07,16,8.90
2008,09,14,07,17,8.90
2008,09,14,07,18,8.90
2008,09,14,07,19,8.90
2008,09,14,07,20,8.90
2008,09,14,07,21,8.90
2008,09,14,07,22,8.90
2008,09,14,07,23,8.90
2008,09,14,07,24,8.90
2008,09,14,07,25,8.90
2008,09,14,07,26,8.90
2008,09,14,07,27,9.00
2008,09,14,07,28,9.00
2008,09,14,07,29,9.00
2008,09,14,07,30,9.00
2008,09,14,07,31,9.10
2008,09,14,07,32,9.10
2008,09,14,07,33,9.10
2008,09,14,07,34,9.10
2008,09,14,07,35,9.10
2008,09,14,07,36,9.10
2008,09,14,07,37,9.20
2008,09,14,07,38,9.20
2008,09,14,07,39,9.20
2008,09,14,07,40,9.20
2008,09,14,07,41,9.30
2008,09,14,07,42,9.30
2008,09,14,07,43,9.30
2008,09,14,07,44,9.30
2008,09,14,07,45,9.30
2008,09,14,07,46,9.40
2008,09,14,07,47,9.40
2008,09,14,07,48,9.40
2008,09,14,07,49,9.40
2008,09,14,07,50,9.50
2008,09,14,07,51,9.50
2008,09,14,07,52,9.50
2008,09,14,07,53,9.60
2008,09,14,07,54,9.60
2008,09,14,07,55,9.60
2008,09,14,07,56,9.60
2008,09,14,07,57,9.70
2008,09,14,07,58,9.70
2008,09,14,07,59,9.70
2008,09,14,08,00,9.80
2008,09,14,08,01,9.80
2008,09,14,08,02,9.80
2008,09,14,08,03,9.90
2008,09,14,08,04,9.90
2008,09,14,08,05,10.00
2008,09,14,08,06,10.00
2008,09,14,08,07,10.00
2008,09,14,08,08,10.10
2008,09,14,08,09,10.20
2008,09,14,08,10,10.20
2008,09,14,08,11,10.30
2008,09,14,08,12,10.30
2008,09,14,08,13,10.40
2008,09,14,08,14,10.50
2008,09,14,08,15,10.50
2008,09,14,08,16,10.60
2008,09,14,08,17,10.60
2008,09,14,08,18,10.70
2008,09,14,08,19,10.80
2008,09,14,08,20,10.80
2008,09,14,08,21,10.90
2008,09,14,08,22,11.00
2008,09,14,08,23,11.10
2008,09,14,08,24,11.10
2008,09,14,08,25,11.20
2008,09,14,08,26,11.30
2008,09,14,08,27,11.40
2008,09,14,08,28,11.50
2008,09,14,08,29,11.60
2008,09,14,08,30,11.70
2008,09,14,08,31,11.80
2008,09,14,08,32,11.90
2008,09,14,08,33,12.00
2008,09,14,08,34,12.10
2008,09,14,08,35,12.20
2008,09,14,08,36,12.30
2008,09,14,08,37,12.40
2008,09,14,08,38,12.50
2008,09,14,08,39,12.60
2008,09,14,08,40,12.70
2008,09,14,08,41,12.80
2008,09,14,08,42,13.00
2008,09,14,08,43,13.10
2008,09,14,08,44,13.20
2008,09,14,08,45,13.30
2008,09,14,08,46,13.50
2008,09,14,08,47,13.50
2008,09,14,08,48,13.60
2008,09,14,08,49,13.80
2008,09,14,08,50,13.80
2008,09,14,08,51,13.90
2008,09,14,08,52,14.00
2008,09,14,08,53,14.20
2008,09,14,08,54,14.30
2008,09,14,08,55,14.40
2008,09,14,08,56,14.50
2008,09,14,08,57,14.60
2008,09,14,08,58,14.70
2008,09,14,08,59,14.90
2008,09,14,09,00,15.00
2008,09,14,09,01,15.10
2008,09,14,09,02,15.30
2008,09,14,09,03,15.60
2008,09,14,09,04,15.70
2008,09,14,09,05,15.80
2008,09,14,09,06,15.90
2008,09,14,09,07,16.00
2008,09,14,09,08,16.10
2008,09,14,09,09,16.20
2008,09,14,09,10,16.30
2008,09,14,09,11,16.40
2008,09,14,09,12,16.50
2008,09,14,09,13,16.60
2008,09,14,09,14,16.70
2008,09,14,09,15,16.80
2008,09,14,09,16,16.80
2008,09,14,09,17,16.80
2008,09,14,09,18,16.80
2008,09,14,09,19,16.90
2008,09,14,09,20,16.90
2008,09,14,09,21,17.00
2008,09,14,09,22,17.10
2008,09,14,09,23,17.10
2008,09,14,09,24,17.20
2008,09,14,09,25,17.20
2008,09,14,09,26,17.30
2008,09,14,09,27,17.30
2008,09,14,09,28,17.30
2008,09,14,09,29,17.30
2008,09,14,09,30,17.30
2008,09,14,09,31,17.30
2008,09,14,09,32,17.30
2008,09,14,09,33,17.30
2008,09,14,09,34,17.40
2008,09,14,09,35,17.40
2008,09,14,09,36,17.40
2008,09,14,09,37,17.40
2008,09,14,09,38,17.40
2008,09,14,09,39,17.40
2008,09,14,09,40,17.40
2008,09,14,09,41,17.40
2008,09,14,09,42,17.40
2008,09,14,09,43,17.50
2008,09,14,09,44,17.50
2008,09,14,09,45,17.60
2008,09,14,09,46,17.70
2008,09,14,09,47,17.80
2008,09,14,09,48,17.80
2008,09,14,09,49,17.90
2008,09,14,09,50,18.00
2008,09,14,09,51,18.00
2008,09,14,09,52,18.10
2008,09,14,09,53,18.10
2008,09,14,09,54,18.20
2008,09,14,09,55,18.30
2008,09,14,09,56,18.30
2008,09,14,09,57,18.40
2008,09,14,09,58,18.40
2008,09,14,09,59,18.40
2008,09,14,10,00,18.40
2008,09,14,10,01,18.40
2008,09,14,10,02,18.40
2008,09,14,10,03,18.50
2008,09,14,10,04,18.60
2008,09,14,10,05,18.70
2008,09,14,10,06,18.70
2008,09,14,10,07,18.70
2008,09,14,10,08,18.80
2008,09,14,10,09,18.80
2008,09,14,10,10,18.80
2008,09,14,10,11,18.80
2008,09,14,10,12,18.90
2008,09,14,10,13,18.90
2008,09,14,10,14,18.90
2008,09,14,10,15,19.00
2008,09,14,10,16,19.00
2008,09,14,10,17,18.80
2008,09,14,10,18,18.70
2008,09,14,10,19,18.50
2008,09,14,10,20,18.40
2008,09,14,10,21,18.20
2008,09,14,10,22,18.10
2008,09,14,10,23,18.10
2008,09,14,10,24,18.00
2008,09,14,10,25,17.90
2008,09,14,10,26,17.80
2008,09,14,10,27,17.80
2008,09,14,10,28,17.90
2008,09,14,10,29,17.90
2008,09,14,10,30,18.00
2008,09,14,10,31,18.00
2008,09,14,10,32,18.10
2008,09,14,10,33,18.10
2008,09,14,10,34,18.20
2008,09,14,10,35,18.20
2008,09,14,10,36,18.20
2008,09,14,10,37,18.10
2008,09,14,10,38,18.10
2008,09,14,10,39,18.00
2008,09,14,10,40,17.90
2008,09,14,10,41,17.80
2008,09,14,10,42,17.80
2008,09,14,10,43,17.80
2008,09,14,10,44,17.70
2008,09,14,10,45,17.60
2008,09,14,10,46,17.60
2008,09,14,10,47,17.60
2008,09,14,10,48,17.60
2008,09,14,10,49,17.60
2008,09,14,10,50,17.60
2008,09,14,10,51,17.60
2008,09,14,10,52,17.70
2008,09,14,10,53,17.70
2008,09,14,10,54,17.70
2008,09,14,10,55,17.70
2008,09,14,10,56,17.70
2008,09,14,10,57,17.70
2008,09,14,10,58,17.70
2008,09,14,10,59,17.70
2008,09,14,11,00,17.60
2008,09,14,11,01,17.70
2008,09,14,11,02,17.70
2008,09,14,11,03,17.80
2008,09,14,11,04,17.80
2008,09,14,11,05,17.80
2008,09,14,11,06,17.80
2008,09,14,11,07,17.80
2008,09,14,11,08,17.90
2008,09,14,11,09,17.90
2008,09,14,11,10,18.00
2008,09,14,11,11,18.10
2008,09,14,11,12,18.20
2008,09,14,11,13,18.20
2008,09,14,11,14,18.30
2008,09,14,11,15,18.30
2008,09,14,11,16,18.40
2008,09,14,11,17,18.50
2008,09,14,11,18,18.60
2008,09,14,11,19,18.70
2008,09,14,11,20,18.80
2008,09,14,11,21,18.80
2008,09,14,11,22,18.80
2008,09,14,11,23,18.80
2008,09,14,11,24,18.80
2008,09,14,11,25,18.80
2008,09,14,11,26,18.80
2008,09,14,11,27,18.70
2008,09,14,11,28,18.60
2008,09,14,11,29,18.60
2008,09,14,11,30,18.60
2008,09,14,11,31,18.50
2008,09,14,11,32,18.50
2008,09,14,11,33,18.50
2008,09,14,11,34,18.60
2008,09,14,11,35,18.60
2008,09,14,11,36,18.70
2008,09,14,11,37,18.70
2008,09,14,11,38,18.80
2008,09,14,11,39,18.70
2008,09,14,11,40,18.70
2008,09,14,11,41,18.80
2008,09,14,11,42,18.80
2008,09,14,11,43,18.80
2008,09,14,11,44,18.90
2008,09,14,11,45,19.00
2008,09,14,11,46,19.10
2008,09,14,11,47,19.20
2008,09,14,11,48,19.20
2008,09,14,11,49,19.10
2008,09,14,11,50,19.00
2008,09,14,11,51,18.90
2008,09,14,11,52,18.90
2008,09,14,11,53,18.80
2008,09,14,11,54,18.80
2008,09,14,11,55,18.90
2008,09,14,11,56,19.00
2008,09,14,11,57,19.10
2008,09,14,11,58,19.20
2008,09,14,11,59,19.40
2008,09,14,12,00,19.50
2008,09,14,12,01,19.50
2008,09,14,12,02,19.50
2008,09,14,12,03,19.40
2008,09,14,12,04,19.30
2008,09,14,12,05,19.30
2008,09,14,12,06,19.40
2008,09,14,12,07,19.50
2008,09,14,12,08,19.60
2008,09,14,12,09,19.70
2008,09,14,12,10,19.70
2008,09,14,12,11,19.60
2008,09,14,12,12,19.60
2008,09,14,12,13,19.60
2008,09,14,12,14,19.60
2008,09,14,12,15,19.70
2008,09,14,12,16,19.80
2008,09,14,12,17,19.80
2008,09,14,12,18,19.90
2008,09,14,12,19,20.00
2008,09,14,12,20,20.10
2008,09,14,12,21,20.20
2008,09,14,12,22,20.20
2008,09,14,12,23,20.20
2008,09,14,12,24,20.30
2008,09,14,12,25,20.30
2008,09,14,12,26,20.20
2008,09,14,12,27,20.20
2008,09,14,12,28,20.20
2008,09,14,12,29,20.20
2008,09,14,12,30,20.20
2008,09,14,12,31,20.30
2008,09,14,12,32,20.30
2008,09,14,12,33,20.30
2008,09,14,12,34,20.30
2008,09,14,12,35,20.20
2008,09,14,12,36,20.10
2008,09,14,12,37,20.10
2008,09,14,12,38,20.00
2008,09,14,12,39,20.00
2008,09,14,12,40,20.00
2008,09,14,12,41,20.00
2008,09,14,12,42,20.10
2008,09,14,12,43,20.20
2008,09,14,12,44,20.20
2008,09,14,12,45,20.20
2008,09,14,12,46,20.20
2008,09,14,12,47,20.20
2008,09,14,12,48,20.20
2008,09,14,12,49,20.20
2008,09,14,12,50,20.20
2008,09,14,12,51,20.20
2008,09,14,12,52,20.30
2008,09,14,12,53,20.40
2008,09,14,12,54,20.40
2008,09,14,12,55,20.40
2008,09,14,12,56,20.40
2008,09,14,12,57,20.30
2008,09,14,12,58,20.30
2008,09,14,12,59,20.30
2008,09,14,13,00,20.30
2008,09,14,13,01,20.30
2008,09,14,13,02,20.40
2008,09,14,13,03,20.50
2008,09,14,13,04,20.70
2008,09,14,13,05,20.80
2008,09,14,13,06,20.90
2008,09,14,13,07,21.00
2008,09,14,13,08,21.10
2008,09,14,13,09,21.20
2008,09,14,13,10,21.30
2008,09,14,13,11,21.20
2008,09,14,13,12,21.10
2008,09,14,13,13,21.00
2008,09,14,13,14,20.80
2008,09,14,13,15,20.70
2008,09,14,13,16,20.70
2008,09,14,13,17,20.80
2008,09,14,13,18,20.90
2008,09,14,13,19,21.00
2008,09,14,13,20,21.10
2008,09,14,13,21,21.20
2008,09,14,13,22,21.20
2008,09,14,13,23,21.10
2008,09,14,13,24,21.00
2008,09,14,13,25,21.00
2008,09,14,13,26,21.00
2008,09,14,13,27,21.10
2008,09,14,13,28,21.20
2008,09,14,13,29,21.20
2008,09,14,13,30,21.20
2008,09,14,13,31,21.20
2008,09,14,13,32,21.20
2008,09,14,13,33,21.20
2008,09,14,13,34,21.20
2008,09,14,13,35,21.20
2008,09,14,13,36,21.20
2008,09,14,13,37,21.20
2008,09,14,13,38,21.20
2008,09,14,13,39,21.20
2008,09,14,13,40,21.20
2008,09,14,13,41,21.10
2008,09,14,13,42,21.10
2008,09,14,13,43,21.00
2008,09,14,13,44,21.00
2008,09,14,13,45,21.00
2008,09,14,13,46,21.10
2008,09,14,13,47,21.10
2008,09,14,13,48,21.00
2008,09,14,13,49,21.00
2008,09,14,13,50,21.00
2008,09,14,13,51,21.00
2008,09,14,13,52,21.10
2008,09,14,13,53,21.20
2008,09,14,13,54,21.20
2008,09,14,13,55,21.30
2008,09,14,13,56,21.30
2008,09,14,13,57,21.40
2008,09,14,13,58,21.40
2008,09,14,13,59,21.40
2008,09,14,14,00,21.30
2008,09,14,14,01,21.30
2008,09,14,14,02,21.20
2008,09,14,14,03,21.20
2008,09,14,14,04,21.20
2008,09,14,14,05,21.20
2008,09,14,14,06,21.30
2008,09,14,14,07,21.30
2008,09,14,14,08,21.20
2008,09,14,14,09,21.20
2008,09,14,14,10,21.10
2008,09,14,14,11,20.90
2008,09,14,14,12,20.80
2008,09,14,14,13,20.90
2008,09,14,14,14,20.90
2008,09,14,14,15,21.00
2008,09,14,14,16,20.90
2008,09,14,14,17,20.90
2008,09,14,14,18,21.00
2008,09,14,14,19,21.00
2008,09,14,14,20,21.00
2008,09,14,14,21,21.00
2008,09,14,14,22,21.00
2008,09,14,14,23,21.10
2008,09,14,14,24,21.10
2008,09,14,14,25,21.10
2008,09,14,14,26,21.10
2008,09,14,14,27,21.10
2008,09,14,14,28,21.10
2008,09,14,14,29,21.00
2008,09,14,14,30,21.10
2008,09,14,14,31,21.10
2008,09,14,14,32,21.20
2008,09,14,14,33,21.30
2008,09,14,14,34,21.40
2008,09,14,14,35,21.40
2008,09,14,14,36,21.50
2008,09,14,14,37,21.60
2008,09,14,14,38,21.60
2008,09,14,14,39,21.70
2008,09,14,14,40,21.80
2008,09,14,14,41,21.70
2008,09,14,14,42,21.70
2008,09,14,14,43,21.70
2008,09,14,14,44,21.70
2008,09,14,14,45,21.60
2008,09,14,14,46,21.50
2008,09,14,14,47,21.40
2008,09,14,14,48,21.20
2008,09,14,14,49,21.20
2008,09,14,14,50,21.20
2008,09,14,14,51,21.20
2008,09,14,14,52,21.30
2008,09,14,14,53,21.30
2008,09,14,14,54,21.30
2008,09,14,14,55,21.30
2008,09,14,14,56,21.40
2008,09,14,14,57,21.50
2008,09,14,14,58,21.50
2008,09,14,14,59,21.60
2008,09,14,15,00,21.50
2008,09,14,15,01,21.50
2008,09,14,15,02,21.50
2008,09,14,15,03,21.50
2008,09,14,15,04,21.50
2008,09,14,15,05,21.40
2008,09,14,15,06,21.40
2008,09,14,15,07,21.30
2008,09,14,15,08,21.30
2008,09,14,15,09,21.30
2008,09,14,15,10,21.40
2008,09,14,15,11,21.50
2008,09,14,15,12,21.70
2008,09,14,15,13,21.70
2008,09,14,15,14,21.70
2008,09,14,15,15,21.80
2008,09,14,15,16,21.80
2008,09,14,15,17,21.70
2008,09,14,15,18,21.60
2008,09,14,15,19,21.60
2008,09,14,15,20,21.60
2008,09,14,15,21,21.70
2008,09,14,15,22,21.70
2008,09,14,15,23,21.70
2008,09,14,15,24,21.70
2008,09,14,15,25,21.60
2008,09,14,15,26,21.70
2008,09,14,15,27,21.70
2008,09,14,15,28,21.80
2008,09,14,15,29,21.80
2008,09,14,15,30,21.80
2008,09,14,15,31,21.80
2008,09,14,15,32,21.90
2008,09,14,15,33,21.90
2008,09,14,15,34,22.00
2008,09,14,15,35,22.00
2008,09,14,15,36,22.00
2008,09,14,15,37,22.10
2008,09,14,15,38,22.10
2008,09,14,15,39,22.10
2008,09,14,15,40,22.10
2008,09,14,15,41,22.00
2008,09,14,15,42,22.00
2008,09,14,15,43,22.00
2008,09,14,15,44,22.00
2008,09,14,15,45,22.00
2008,09,14,15,46,22.00
2008,09,14,15,47,21.90
2008,09,14,15,48,21.90
2008,09,14,15,49,21.80
2008,09,14,15,50,21.80
2008,09,14,15,51,21.80
2008,09,14,15,52,21.80
2008,09,14,15,53,21.80
2008,09,14,15,54,21.80
2008,09,14,15,55,21.80
2008,09,14,15,56,21.80
2008,09,14,15,57,21.80
2008,09,14,15,58,21.70
2008,09,14,15,59,21.70
2008,09,14,16,00,21.80
2008,09,14,16,01,21.80
2008,09,14,16,02,21.80
2008,09,14,16,03,21.80
2008,09,14,16,04,21.80
2008,09,14,16,05,21.80
2008,09,14,16,06,21.80
2008,09,14,16,07,21.90
2008,09,14,16,08,21.90
2008,09,14,16,09,22.00
2008,09,14,16,10,22.10
2008,09,14,16,11,22.10
2008,09,14,16,12,22.10
2008,09,14,16,13,22.10
2008,09,14,16,14,22.20
2008,09,14,16,15,22.20
2008,09,14,16,16,22.20
2008,09,14,16,17,22.10
2008,09,14,16,18,22.10
2008,09,14,16,19,22.10
2008,09,14,16,20,22.10
2008,09,14,16,21,22.10
2008,09,14,16,22,22.10
2008,09,14,16,23,22.20
2008,09,14,16,24,22.20
2008,09,14,16,25,22.20
2008,09,14,16,26,22.20
2008,09,14,16,27,22.20
2008,09,14,16,28,22.20
2008,09,14,16,29,22.20
2008,09,14,16,30,22.20
2008,09,14,16,31,22.10
2008,09,14,16,32,22.10
2008,09,14,16,33,22.10
2008,09,14,16,34,22.10
2008,09,14,16,35,22.00
2008,09,14,16,36,22.10
2008,09,14,16,37,22.10
2008,09,14,16,38,22.10
2008,09,14,16,39,22.00
2008,09,14,16,40,21.90
2008,09,14,16,41,21.90
2008,09,14,16,42,21.90
2008,09,14,16,43,21.90
2008,09,14,16,44,22.00
2008,09,14,16,45,22.00
2008,09,14,16,46,21.90
2008,09,14,16,47,21.90
2008,09,14,16,48,21.80
2008,09,14,16,49,21.80
2008,09,14,16,50,21.70
2008,09,14,16,51,21.70
2008,09,14,16,52,21.70
2008,09,14,16,53,21.70
2008,09,14,16,54,21.70
2008,09,14,16,55,21.80
2008,09,14,16,56,21.80
2008,09,14,16,57,21.80
2008,09,14,16,58,21.80
2008,09,14,16,59,21.80
2008,09,14,17,00,21.80
2008,09,14,17,01,21.80
2008,09,14,17,02,21.80
2008,09,14,17,03,21.80
2008,09,14,17,04,21.80
2008,09,14,17,05,21.80
2008,09,14,17,06,21.80
2008,09,14,17,07,21.80
2008,09,14,17,08,21.80
2008,09,14,17,09,21.80
2008,09,14,17,10,21.80
2008,09,14,17,11,21.80
2008,09,14,17,12,21.80
2008,09,14,17,13,21.80
2008,09,14,17,14,21.80
2008,09,14,17,15,21.80
2008,09,14,17,16,21.80
2008,09,14,17,17,21.80
2008,09,14,17,18,21.80
2008,09,14,17,19,21.80
2008,09,14,17,20,21.80
2008,09,14,17,21,21.80
2008,09,14,17,22,21.80
2008,09,14,17,23,21.80
2008,09,14,17,24,21.80
2008,09,14,17,25,21.80
2008,09,14,17,26,21.80
2008,09,14,17,27,21.80
2008,09,14,17,28,21.70